| time (UTC) | temp C | wind direction | speed KPH | gust KPH | rain 1hr cm | rain 24hr cm | rain mn cm | humidity % | barometer mb |
| 20260508151629 | 15 | 206 | 11.3 | 19.3 | 0.00 | 0.00 | 0.00 | 50 | 1016.5 |
| 20260508150627 | 14 | 214 | 16.1 | 24.1 | 0.00 | 0.00 | 0.00 | 51 | 1016.1 |
| 20260508145626 | 14 | 219 | 14.5 | 17.7 | 0.00 | 0.00 | 0.00 | 51 | 1016.0 |
| 20260508144623 | 13 | 213 | 12.9 | 22.5 | 0.00 | 0.00 | 0.00 | 52 | 1016.2 |
| 20260508143622 | 13 | 211 | 16.1 | 20.9 | 0.00 | 0.00 | 0.00 | 51 | 1016.1 |
| 20260508142637 | 13 | 219 | 11.3 | 17.7 | 0.00 | 0.00 | 0.00 | 51 | 1016.1 |
| 20260508141640 | 14 | 195 | 11.3 | 17.7 | 0.00 | 0.00 | 0.00 | 48 | 1016.1 |
| 20260508140635 | 13 | 203 | 17.7 | 30.6 | 0.00 | 0.00 | 0.00 | 52 | 1015.8 |
| 20260508135636 | 13 | 205 | 22.5 | 29.0 | 0.00 | 0.00 | 0.00 | 51 | 1015.6 |
| 20260508134632 | 13 | 204 | 9.7 | 17.7 | 0.00 | 0.00 | 0.00 | 51 | 1015.5 |
| 20260508133628 | 13 | 206 | 14.5 | 22.5 | 0.00 | 0.00 | 0.00 | 51 | 1015.6 |
| 20260508132625 | 13 | 220 | 19.3 | 24.1 | 0.00 | 0.00 | 0.00 | 50 | 1015.2 |
| 20260508131643 | 13 | 226 | 14.5 | 24.1 | 0.00 | 0.00 | 0.00 | 49 | 1015.3 |
| 20260508130619 | 13 | 208 | 17.7 | 30.6 | 0.00 | 0.00 | 0.00 | 47 | 1015.1 |
| 20260508125637 | 13 | 214 | 20.9 | 30.6 | 0.00 | 0.00 | 0.00 | 48 | 1015.2 |
| 20260508124637 | 12 | 212 | 12.9 | 20.9 | 0.00 | 0.00 | 0.00 | 48 | 1015.2 |
| 20260508123634 | 13 | 220 | 20.9 | 27.4 | 0.00 | 0.00 | 0.00 | 48 | 1014.9 |
| 20260508122634 | 13 | 212 | 22.5 | 29.0 | 0.00 | 0.00 | 0.00 | 48 | 1015.0 |
| 20260508121630 | 13 | 210 | 20.9 | 30.6 | 0.00 | 0.00 | 0.00 | 48 | 1015.0 |
| 20260508120625 | 13 | 204 | 12.9 | 22.5 | 0.00 | 0.00 | 0.00 | 47 | 1015.0 |
| 20260508115644 | 13 | 198 | 17.7 | 22.5 | 0.00 | 0.00 | 0.00 | 46 | 1015.1 |
| 20260508114626 | 13 | 203 | 24.1 | 30.6 | 0.00 | 0.00 | 0.00 | 44 | 1015.1 |
| 20260508113619 | 13 | 215 | 14.5 | 24.1 | 0.00 | 0.00 | 0.00 | 45 | 1015.1 |
| 20260508112656 | 13 | 223 | 12.9 | 19.3 | 0.00 | 0.00 | 0.00 | 46 | 1014.9 |
| 20260508111644 | 13 | 216 | 16.1 | 22.5 | 0.00 | 0.00 | 0.00 | 45 | 1015.0 |
| 20260508110636 | 13 | 213 | 12.9 | 19.3 | 0.00 | 0.00 | 0.00 | 45 | 1014.7 |
| 20260508105628 | 13 | 220 | 25.7 | 30.6 | 0.00 | 0.00 | 0.00 | 45 | 1014.8 |
| 20260508104626 | 13 | 210 | 20.9 | 27.4 | 0.00 | 0.00 | 0.00 | 44 | 1014.7 |
| 20260508103628 | 13 | 222 | 16.1 | 30.6 | 0.00 | 0.00 | 0.00 | 43 | 1014.7 |
| 20260508102621 | 13 | 212 | 19.3 | 32.2 | 0.00 | 0.00 | 0.00 | 42 | 1014.8 |
| 20260508101622 | 13 | 214 | 19.3 | 25.7 | 0.00 | 0.00 | 0.00 | 43 | 1014.6 |
| 20260508100637 | 13 | 220 | 16.1 | 22.5 | 0.00 | 0.00 | 0.00 | 40 | 1014.6 |
| 20260508095634 | 13 | 215 | 14.5 | 19.3 | 0.00 | 0.00 | 0.00 | 41 | 1014.5 |
| 20260508094656 | 13 | 208 | 16.1 | 20.9 | 0.00 | 0.00 | 0.00 | 40 | 1014.7 |
| 20260508093630 | 13 | 216 | 16.1 | 20.9 | 0.00 | 0.00 | 0.00 | 39 | 1014.7 |
| 20260508092632 | 13 | 217 | 19.3 | 24.1 | 0.00 | 0.00 | 0.00 | 38 | 1014.7 |
| 20260508091625 | 14 | 221 | 19.3 | 25.7 | 0.00 | 0.00 | 0.00 | 36 | 1014.6 |
| 20260508090624 | 14 | 212 | 16.1 | 24.1 | 0.00 | 0.00 | 0.00 | 34 | 1014.8 |
| 20260508085620 | 14 | 212 | 12.9 | 17.7 | 0.00 | 0.00 | 0.00 | 33 | 1014.7 |
| 20260508084622 | 15 | 198 | 9.7 | 19.3 | 0.00 | 0.00 | 0.00 | 31 | 1014.9 |
| 20260508083635 | 15 | 213 | 11.3 | 16.1 | 0.00 | 0.00 | 0.00 | 30 | 1014.7 |
| 20260508082635 | 16 | 217 | 20.9 | 30.6 | 0.00 | 0.00 | 0.00 | 27 | 1014.7 |
| 20260508081634 | 15 | 188 | 12.9 | 19.3 | 0.00 | 0.00 | 0.00 | 27 | 1014.7 |
| 20260508080631 | 15 | 194 | 11.3 | 19.3 | 0.00 | 0.00 | 0.00 | 25 | 1014.5 |
| 20260508075627 | 16 | 206 | 11.3 | 17.7 | 0.00 | 0.00 | 0.00 | 25 | 1014.9 |
| 20260508074624 | 16 | 206 | 9.7 | 17.7 | 0.00 | 0.00 | 0.00 | 26 | 1014.8 |
| 20260508073624 | 16 | 211 | 9.7 | 17.7 | 0.00 | 0.00 | 0.00 | 27 | 1014.8 |
| 20260508072620 | 17 | 222 | 3.2 | 6.4 | 0.00 | 0.00 | 0.00 | 26 | 1014.7 |
| 20260508071617 | 17 | 182 | 4.8 | 8.0 | 0.00 | 0.00 | 0.00 | 24 | 1014.9 |
| 20260508070639 | 17 | 202 | 8.0 | 11.3 | 0.00 | 0.00 | 0.00 | 25 | 1014.5 |
| 20260508065633 | 17 | 259 | 8.0 | 14.5 | 0.00 | 0.00 | 0.00 | 25 | 1014.7 |
| 20260508064632 | 17 | 221 | 8.0 | 12.9 | 0.00 | 0.00 | 0.00 | 26 | 1014.1 |
| 20260508063632 | 17 | 201 | 12.9 | 19.3 | 0.00 | 0.00 | 0.00 | 25 | 1014.0 |
| 20260508062626 | 17 | 214 | 9.7 | 22.5 | 0.00 | 0.00 | 0.00 | 26 | 1014.0 |
| 20260508061624 | 18 | 212 | 14.5 | 19.3 | 0.00 | 0.00 | 0.00 | 26 | 1013.8 |
| 20260508060630 | 18 | 217 | 19.3 | 27.4 | 0.00 | 0.00 | 0.00 | 26 | 1013.8 |
| 20260508055622 | 18 | 206 | 11.3 | 19.3 | 0.00 | 0.00 | 0.00 | 28 | 1014.0 |
| 20260508054622 | 18 | 214 | 14.5 | 20.9 | 0.00 | 0.00 | 0.00 | 28 | 1013.9 |
| 20260508053635 | 18 | 212 | 14.5 | 20.9 | 0.00 | 0.00 | 0.00 | 28 | 1014.0 |
| 20260508052656 | 18 | 217 | 22.5 | 30.6 | 0.00 | 0.00 | 0.00 | 27 | 1014.1 |
| 20260508051630 | 18 | 216 | 14.5 | 30.6 | 0.00 | 0.00 | 0.00 | 26 | 1013.9 |
| 20260508050631 | 18 | 209 | 17.7 | 24.1 | 0.00 | 0.00 | 0.00 | 27 | 1014.1 |
| 20260508045649 | 19 | 203 | 11.3 | 16.1 | 0.00 | 0.00 | 0.00 | 28 | 1013.9 |
| 20260508044623 | 19 | 211 | 9.7 | 19.3 | 0.00 | 0.00 | 0.00 | 29 | 1014.1 |
| 20260508043624 | 20 | 199 | 11.3 | 16.1 | 0.00 | 0.00 | 0.00 | 30 | 1014.1 |
| 20260508042626 | 20 | 218 | 4.8 | 8.0 | 0.00 | 0.00 | 0.00 | 33 | 1014.1 |
| 20260508041639 | 21 | 232 | 3.2 | 4.8 | 0.00 | 0.00 | 0.00 | 32 | 1014.0 |
| 20260508040637 | 21 | 189 | 6.4 | 9.7 | 0.00 | 0.00 | 0.00 | 30 | 1014.0 |
| 20260508035633 | 21 | 86 | 1.6 | 3.2 | 0.00 | 0.00 | 0.00 | 30 | 1014.1 |
| 20260508034635 | 21 | 185 | 1.6 | 4.8 | 0.00 | 0.00 | 0.00 | 28 | 1013.9 |
| 20260508033627 | 21 | 188 | 3.2 | 4.8 | 0.00 | 0.00 | 0.00 | 34 | 1013.9 |
| 20260508032629 | 21 | 192 | 1.6 | 3.2 | 0.00 | 0.00 | 0.00 | 34 | 1013.9 |
| 20260508031626 | 21 | 185 | 3.2 | 6.4 | 0.00 | 0.00 | 0.00 | 33 | 1014.0 |
| 20260508030620 | 22 | 177 | 1.6 | 3.2 | 0.00 | 0.00 | 0.00 | 33 | 1013.8 |
| 20260508025621 | 22 | 184 | 3.2 | 3.2 | 0.00 | 0.00 | 0.00 | 33 | 1013.9 |
| 20260508024637 | 22 | 202 | 3.2 | 4.8 | 0.00 | 0.00 | 0.00 | 32 | 1013.8 |
| 20260508023640 | 22 | 212 | 4.8 | 6.4 | 0.00 | 0.00 | 0.00 | 31 | 1014.0 |
| 20260508022630 | 22 | 219 | 3.2 | 6.4 | 0.00 | 0.00 | 0.00 | 32 | 1014.0 |
| 20260508021634 | 23 | 210 | 3.2 | 4.8 | 0.00 | 0.00 | 0.00 | 31 | 1014.0 |
| 20260508020630 | 23 | 197 | 4.8 | 6.4 | 0.00 | 0.00 | 0.00 | 30 | 1014.0 |
| 20260508015630 | 23 | 201 | 4.8 | 6.4 | 0.00 | 0.00 | 0.00 | 29 | 1014.2 |
| 20260508014622 | 23 | 188 | 8.0 | 9.7 | 0.00 | 0.00 | 0.00 | 26 | 1014.0 |
| 20260508013620 | 24 | 184 | 8.0 | 9.7 | 0.00 | 0.00 | 0.00 | 26 | 1013.9 |
| 20260508012621 | 25 | 202 | 6.4 | 8.0 | 0.00 | 0.00 | 0.00 | 24 | 1014.0 |
| 20260508011655 | 25 | 278 | 3.2 | 4.8 | 0.00 | 0.00 | 0.00 | 24 | 1014.2 |
| 20260508010638 | 24 | 146 | 3.2 | 3.2 | 0.00 | 0.00 | 0.00 | 24 | 1014.1 |
| 20260508005633 | 25 | 188 | 4.8 | 9.7 | 0.00 | 0.00 | 0.00 | 23 | 1014.0 |
| 20260508004636 | 25 | 57 | 3.2 | 4.8 | 0.00 | 0.00 | 0.00 | 23 | 1014.1 |
| 20260508003634 | 25 | 219 | 1.6 | 3.2 | 0.00 | 0.00 | 0.00 | 23 | 1014.2 |
| 20260508002651 | 25 | 242 | 4.8 | 6.4 | 0.00 | 0.00 | 0.00 | 24 | 1014.4 |
| 20260508001628 | 24 | 200 | 4.8 | 6.4 | 0.00 | 0.00 | 0.00 | 24 | 1014.4 |
| 20260508000624 | 24 | 188 | 8.0 | 9.7 | 0.00 | 0.00 | 0.00 | 25 | 1014.4 |
| 20260507235619 | 24 | 261 | 4.8 | 8.0 | 0.00 | 0.00 | 0.00 | 24 | 1014.5 |
| 20260507234635 | 24 | 353 | 1.6 | 4.8 | 0.00 | 0.00 | 0.00 | 24 | 1014.6 |
| 20260507233639 | 23 | 193 | 1.6 | 6.4 | 0.00 | 0.00 | 0.00 | 24 | 1014.8 |
| 20260507232634 | 23 | 83 | 1.6 | 3.2 | 0.00 | 0.00 | 0.00 | 25 | 1014.7 |
| 20260507231632 | 24 | 92 | 4.8 | 8.0 | 0.00 | 0.00 | 0.00 | 25 | 1014.8 |
| 20260507230629 | 24 | 199 | 4.8 | 8.0 | 0.00 | 0.00 | 0.00 | 25 | 1015.0 |
| 20260507225629 | 24 | 262 | 3.2 | 8.0 | 0.00 | 0.00 | 0.00 | 24 | 1015.0 |
| 20260507224621 | 25 | 192 | 4.8 | 6.4 | 0.00 | 0.00 | 0.00 | 25 | 1015.2 |
| 20260507223701 | 24 | 75 | 4.8 | 9.7 | 0.00 | 0.00 | 0.00 | 26 | 1015.3 |
| 20260507222618 | 23 | 210 | 3.2 | 6.4 | 0.00 | 0.00 | 0.00 | 25 | 1015.5 |
| 20260507221719 | 23 | 195 | 4.8 | 6.4 | 0.00 | 0.00 | 0.00 | 26 | 1015.7 |
| 20260507220637 | 23 | 171 | 6.4 | 9.7 | 0.00 | 0.00 | 0.00 | 25 | 1015.8 |
| 20260507215630 | 23 | 172 | 9.7 | 11.3 | 0.00 | 0.00 | 0.00 | 25 | 1015.8 |
| 20260507214629 | 23 | 230 | 4.8 | 8.0 | 0.00 | 0.00 | 0.00 | 27 | 1016.0 |
| 20260507213628 | 23 | 183 | 12.9 | 17.7 | 0.00 | 0.00 | 0.00 | 27 | 1016.2 |
| 20260507212646 | 23 | 195 | 8.0 | 12.9 | 0.00 | 0.00 | 0.00 | 28 | 1016.2 |
| 20260507211625 | 22 | 323 | 8.0 | 9.7 | 0.00 | 0.00 | 0.00 | 27 | 1016.3 |
| 20260507210619 | 22 | 188 | 4.8 | 8.0 | 0.00 | 0.00 | 0.00 | 27 | 1016.4 |
| 20260507205620 | 22 | 197 | 6.4 | 8.0 | 0.00 | 0.00 | 0.00 | 30 | 1016.4 |
| 20260507204635 | 22 | 185 | 11.3 | 19.3 | 0.00 | 0.00 | 0.00 | 30 | 1016.7 |
| 20260507203633 | 22 | 189 | 12.9 | 17.7 | 0.00 | 0.00 | 0.00 | 29 | 1017.0 |
| 20260507202633 | 22 | 193 | 8.0 | 14.5 | 0.00 | 0.00 | 0.00 | 31 | 1016.8 |
| 20260507201629 | 21 | 151 | 6.4 | 8.0 | 0.00 | 0.00 | 0.00 | 31 | 1016.9 |
| 20260507200651 | 22 | 180 | 11.3 | 17.7 | 0.00 | 0.00 | 0.00 | 28 | 1016.9 |
| 20260507195625 | 21 | 189 | 8.0 | 14.5 | 0.00 | 0.00 | 0.00 | 34 | 1016.9 |
| 20260507194621 | 21 | 195 | 11.3 | 14.5 | 0.00 | 0.00 | 0.00 | 33 | 1017.2 |
| 20260507193625 | 21 | 181 | 6.4 | 14.5 | 0.00 | 0.00 | 0.00 | 33 | 1017.0 |
| 20260507192622 | 21 | 171 | 12.9 | 17.7 | 0.00 | 0.00 | 0.00 | 34 | 1017.0 |
| 20260507191636 | 21 | 186 | 11.3 | 17.7 | 0.00 | 0.00 | 0.00 | 34 | 1017.3 |
| 20260507190639 | 20 | 180 | 12.9 | 24.1 | 0.00 | 0.00 | 0.00 | 35 | 1017.1 |
| 20260507185638 | 20 | 188 | 11.3 | 19.3 | 0.00 | 0.00 | 0.00 | 37 | 1017.2 |
| 20260507184650 | 20 | 228 | 8.0 | 16.1 | 0.00 | 0.00 | 0.00 | 37 | 1017.4 |
| 20260507183631 | 20 | 180 | 12.9 | 20.9 | 0.00 | 0.00 | 0.00 | 37 | 1017.3 |
| 20260507182625 | 20 | 215 | 8.0 | 16.1 | 0.00 | 0.00 | 0.00 | 40 | 1017.5 |
| 20260507181623 | 19 | 177 | 6.4 | 8.0 | 0.00 | 0.00 | 0.00 | 43 | 1017.4 |
| 20260507180625 | 19 | 184 | 12.9 | 17.7 | 0.00 | 0.00 | 0.00 | 42 | 1017.5 |
| 20260507175622 | 18 | 173 | 8.0 | 12.9 | 0.00 | 0.00 | 0.00 | 42 | 1017.6 |
| 20260507174634 | 19 | 198 | 6.4 | 9.7 | 0.00 | 0.00 | 0.00 | 44 | 1017.5 |
| 20260507173639 | 18 | 208 | 9.7 | 16.1 | 0.00 | 0.00 | 0.00 | 46 | 1017.7 |
| 20260507172631 | 18 | 183 | 9.7 | 12.9 | 0.00 | 0.00 | 0.00 | 45 | 1017.8 |
| 20260507171629 | 18 | 216 | 6.4 | 11.3 | 0.00 | 0.00 | 0.00 | 44 | 1017.8 |
| 20260507170629 | 18 | 196 | 6.4 | 8.0 | 0.00 | 0.00 | 0.00 | 46 | 1017.8 |
| 20260507165646 | 18 | 273 | 11.3 | 12.9 | 0.00 | 0.00 | 0.00 | 44 | 1017.9 |
| 20260507164621 | 18 | 228 | 8.0 | 11.3 | 0.00 | 0.00 | 0.00 | 45 | 1017.8 |
| 20260507163625 | 18 | 263 | 6.4 | 9.7 | 0.00 | 0.00 | 0.00 | 44 | 1018.0 |
| 20260507162619 | 18 | 238 | 9.7 | 14.5 | 0.00 | 0.00 | 0.00 | 43 | 1017.8 |
| 20260507161658 | 17 | 237 | 6.4 | 9.7 | 0.00 | 0.00 | 0.00 | 43 | 1017.7 |
| 20260507160634 | 18 | 267 | 8.0 | 12.9 | 0.00 | 0.00 | 0.00 | 42 | 1017.7 |
| 20260507155632 | 17 | 224 | 6.4 | 9.7 | 0.00 | 0.00 | 0.00 | 43 | 1017.8 |
| 20260507154630 | 17 | 262 | 3.2 | 6.4 | 0.00 | 0.00 | 0.00 | 45 | 1017.7 |
| 20260507153627 | 17 | 249 | 4.8 | 8.0 | 0.00 | 0.00 | 0.00 | 43 | 1017.6 |
| 20260507152650 | 16 | 314 | 6.4 | 9.7 | 0.00 | 0.00 | 0.00 | 44 | 1017.6 |